Home > Weather > Meilen > Past weeks

Flag for Switzerland Weather for the Past 2 Weeks in Meilen, Zurich, Switzerland

Now
40 °F

Quite cool.


Feels Like: 40 °F
Forecast: 31 / 51 °F
Wind: 1 mph from Southeast

Location: Zuerich-Fluntern

Current Time: Feb 5, 2016 at 11:47:22 PM

Latest Report: Feb 5, 2016 at 9:00 PM


Visibility: N/A

Pressure: 30.30 "Hg

Humidity: 88%

Dew point: 37 °F

Location of MeilenLocation

Historic Weather in Meilen — Graph

°F

Meilen Temperature Yesterday

Maximum temperature yesterday: 38 °F (at 1:00 PM)
Minimum temperature yesterday: 35 °F (at 7:00 AM)
Average temperature yesterday: 36 °F

High & Low Weather Summary for the Past Weeks

 TemperatureHumidityPressure
High56 °F (Feb 1, 1:00 PM)100% (Jan 24, 5:00 AM)30.69 "Hg (Jan 24, 5:00 AM)
Low27 °F (Jan 22, 2:00 AM)51% (Jan 25, 2:00 PM)29.99 "Hg (Jan 31, 3:00 PM)
Average42 °F79%30.37 "Hg
* Reported Jan 21 9:00 PM — Feb 5 9:00 PM, Meilen, Weather by CustomWeather, © 2016

Note: Actual official high and low records may vary slightly from our data, if they occured in-between our weather recording intervals... More about our weather records

Advertising

Meilen Weather History for the Previous 24 Hours

 ConditionsComfort  
Time TempWeatherWind HumidityBarometerVisibility
9:00 PM
Fri, Feb 5
40 °FQuite cool.1 mph88%30.30 "HgN/A
8:00 PM39 °FChilly.2 mph93%30.32 "HgN/A
7:00 PM40 °FQuite cool.1 mph87%30.32 "HgN/A
6:00 PM43 °FQuite cool.1 mph80%30.32 "HgN/A
5:00 PM45 °FCool.3 mph76%30.32 "HgN/A
4:00 PM46 °FCool.3 mph73%30.33 "HgN/A
3:00 PM46 °FCool.5 mph77%30.34 "HgN/A
2:00 PM46 °FCool.2 mph80%30.37 "HgN/A
1:00 PM44 °FOvercast.3 mph84%30.40 "HgN/A
12:00 PM45 °FQuite cool.2 mph83%30.41 "HgN/A
11:00 AM42 °FQuite cool.2 mph88%30.44 "HgN/A
10:00 AM41 °FQuite cool.2 mph91%30.43 "HgN/A
9:00 AM41 °FQuite cool.3 mph88%30.44 "HgN/A
8:00 AM40 °FQuite cool.5 mph89%30.45 "HgN/A
7:00 AM41 °FQuite cool.6 mph89%30.44 "HgN/A
6:00 AM40 °FQuite cool.7 mph91%30.43 "HgN/A
11:00 PM
Thu, Feb 4
38 °FChilly.12 mph91%30.39 "HgN/A
Weather by CustomWeather, © 2016

See weather overviewHow to use our weather pages